IRA3681 OMDB-OIAW

Flight info

Callsign IRA3681
Flight time N/A
Altitude 38000
Route DAVMO M318 GABKO M317 ROTAL P574 SYZ G665 VATAN W30 GODMO
Aircraft B38M/M-SDE1FGHILORVWXY/HB1

Departure

Time N/A
Airport Dubai International Airport (OMDB)

Arrival

Time 2026-05-07 16:26
Airport Qasem Soleimani International Airport (OIAW)
Time Latitude Longitude Altitude Speed Heading
2026-05-07 15:14 27.01819 54.64047 37530 ft 410 kts 303°
2026-05-07 15:14 27.03587 54.61542 37724 ft 409 kts 303°
2026-05-07 15:14 27.05350 54.59047 37851 ft 409 kts 303°
2026-05-07 15:15 27.08857 54.54074 37848 ft 403 kts 303°
2026-05-07 15:15 27.12332 54.49143 37830 ft 403 kts 302°
2026-05-07 15:16 27.15810 54.44201 37847 ft 404 kts 302°
2026-05-07 15:16 27.19286 54.39257 37845 ft 403 kts 303°
2026-05-07 15:17 27.22761 54.34308 37855 ft 404 kts 302°
2026-05-07 15:17 27.26227 54.29366 37849 ft 400 kts 302°
2026-05-07 15:18 27.29668 54.24454 37843 ft 400 kts 302°
2026-05-07 15:18 27.33086 54.19570 37854 ft 400 kts 302°
2026-05-07 15:19 27.36529 54.14646 37856 ft 401 kts 302°
2026-05-07 15:19 27.39972 54.09716 37851 ft 401 kts 302°
2026-05-07 15:20 27.43406 54.04792 37846 ft 398 kts 302°
2026-05-07 15:20 27.46827 53.99882 37843 ft 399 kts 302°
2026-05-07 15:21 27.50251 53.94964 37865 ft 399 kts 301°
2026-05-07 15:21 27.53739 53.90083 37837 ft 404 kts 309°
2026-05-07 15:22 27.56010 53.88146 37867 ft 416 kts 321°
2026-05-07 15:22 27.58500 53.86470 37863 ft 419 kts 321°
2026-05-07 15:22 27.63541 53.83172 37864 ft 419 kts 322°
2026-05-07 15:23 27.68619 53.79929 37859 ft 420 kts 322°
2026-05-07 15:23 27.73706 53.76697 37867 ft 420 kts 322°
2026-05-07 15:24 27.78795 53.73463 37894 ft 420 kts 322°
2026-05-07 15:24 27.83892 53.70219 37872 ft 421 kts 322°
2026-05-07 15:25 27.88991 53.66973 37895 ft 421 kts 322°
2026-05-07 15:25 27.94089 53.63721 37893 ft 420 kts 321°
2026-05-07 15:26 27.99179 53.60473 37933 ft 420 kts 321°
2026-05-07 15:26 28.04263 53.57224 37930 ft 419 kts 321°
2026-05-07 15:27 28.09344 53.53974 37915 ft 420 kts 321°
2026-05-07 15:27 28.14429 53.50718 37967 ft 420 kts 321°
2026-05-07 15:28 28.19511 53.47459 37956 ft 418 kts 321°
2026-05-07 15:28 28.24578 53.44207 37938 ft 418 kts 321°
2026-05-07 15:29 28.29605 53.40977 37943 ft 418 kts 321°
2026-05-07 15:29 28.34671 53.37718 37946 ft 418 kts 321°
2026-05-07 15:30 28.39734 53.34458 37943 ft 419 kts 321°
2026-05-07 15:30 28.44782 53.31205 37947 ft 417 kts 321°
2026-05-07 15:31 28.49845 53.27937 37950 ft 419 kts 321°
2026-05-07 15:31 28.54889 53.24647 37963 ft 418 kts 320°
2026-05-07 15:32 28.59934 53.21334 38011 ft 420 kts 320°
2026-05-07 15:32 28.64986 53.18013 37985 ft 419 kts 320°
2026-05-07 15:33 28.70035 53.14691 37995 ft 419 kts 320°
2026-05-07 15:33 28.75076 53.11370 38025 ft 419 kts 320°
2026-05-07 15:34 28.80117 53.08045 38040 ft 418 kts 320°
2026-05-07 15:34 28.85131 53.04734 38035 ft 416 kts 320°
2026-05-07 15:35 28.90144 53.01421 38065 ft 417 kts 320°
2026-05-07 15:35 28.95170 52.98094 38029 ft 419 kts 320°
2026-05-07 15:36 29.00220 52.94750 38063 ft 419 kts 320°
2026-05-07 15:36 29.05246 52.91417 38081 ft 418 kts 320°
2026-05-07 15:37 29.10276 52.88077 38085 ft 418 kts 320°
2026-05-07 15:37 29.15300 52.84738 38082 ft 418 kts 319°
2026-05-07 15:38 29.20310 52.81405 38086 ft 417 kts 319°
2026-05-07 15:38 29.25335 52.78057 38093 ft 417 kts 319°
2026-05-07 15:39 29.30352 52.74713 38099 ft 418 kts 319°
2026-05-07 15:39 29.35387 52.71349 38110 ft 419 kts 319°
2026-05-07 15:40 29.40418 52.67987 38083 ft 417 kts 319°
2026-05-07 15:40 29.45433 52.64631 38098 ft 418 kts 319°
2026-05-07 15:41 29.50418 52.61230 38098 ft 411 kts 312°
2026-05-07 15:41 29.52419 52.59047 38096 ft 388 kts 298°
2026-05-07 15:41 29.53766 52.56448 38124 ft 374 kts 285°
2026-05-07 15:42 29.55207 52.51804 38131 ft 370 kts 281°
2026-05-07 15:42 29.56601 52.46128 38128 ft 368 kts 278°
2026-05-07 15:43 29.57847 52.40422 38121 ft 369 kts 278°
2026-05-07 15:43 29.59049 52.34698 38118 ft 368 kts 277°
2026-05-07 15:44 29.60235 52.28981 38164 ft 369 kts 277°
2026-05-07 15:44 29.61419 52.23246 38122 ft 368 kts 277°
2026-05-07 15:45 29.62599 52.17521 38123 ft 369 kts 277°
2026-05-07 15:45 29.63776 52.11795 38137 ft 368 kts 277°
2026-05-07 15:46 29.65534 52.03214 38113 ft 369 kts 276°
2026-05-07 15:47 29.66709 51.97470 38109 ft 368 kts 276°
2026-05-07 15:47 29.67875 51.91736 38098 ft 368 kts 277°
2026-05-07 15:48 29.69027 51.86057 38127 ft 368 kts 277°
2026-05-07 15:48 29.70190 51.80311 38087 ft 368 kts 276°
2026-05-07 15:49 29.71347 51.74582 38063 ft 367 kts 276°
2026-05-07 15:49 29.72497 51.68875 38071 ft 365 kts 276°
2026-05-07 15:50 29.73641 51.63180 38041 ft 366 kts 276°
2026-05-07 15:50 29.74788 51.57459 37998 ft 367 kts 276°
2026-05-07 15:51 29.75929 51.51758 37987 ft 365 kts 276°
2026-05-07 15:51 29.77067 51.46055 38001 ft 366 kts 276°
2026-05-07 15:52 29.78197 51.40365 37983 ft 364 kts 276°
2026-05-07 15:52 29.79326 51.34667 37976 ft 365 kts 276°
2026-05-07 15:53 29.80454 51.28970 37973 ft 364 kts 275°
2026-05-07 15:53 29.81593 51.23298 37966 ft 363 kts 275°
2026-05-07 15:54 29.82726 51.17631 37965 ft 363 kts 275°
2026-05-07 15:54 29.83862 51.11945 37951 ft 364 kts 275°
2026-05-07 15:54 29.84429 51.09099 37804 ft 366 kts 275°
2026-05-07 15:55 29.84995 51.06254 37425 ft 363 kts 275°
2026-05-07 15:55 29.85552 51.03455 37026 ft 364 kts 276°
2026-05-07 15:55 29.86117 51.00608 36680 ft 366 kts 276°
2026-05-07 15:55 29.86686 50.97739 36309 ft 368 kts 276°
2026-05-07 15:56 29.87254 50.94873 35943 ft 369 kts 276°
2026-05-07 15:56 29.87826 50.91981 35585 ft 370 kts 276°
2026-05-07 15:56 29.88398 50.89085 35219 ft 372 kts 276°
2026-05-07 15:56 29.88974 50.86166 34852 ft 375 kts 276°
2026-05-07 15:57 29.89552 50.83234 34508 ft 377 kts 276°
2026-05-07 15:57 29.90134 50.80279 34157 ft 379 kts 276°
2026-05-07 15:57 29.90716 50.77318 33790 ft 381 kts 276°
2026-05-07 15:57 29.91304 50.74322 33381 ft 384 kts 276°
2026-05-07 15:58 29.91895 50.71307 32972 ft 388 kts 277°
2026-05-07 15:58 29.92493 50.68256 32569 ft 392 kts 277°
2026-05-07 15:58 29.93094 50.65177 32166 ft 395 kts 277°
2026-05-07 15:58 29.93702 50.62068 31770 ft 400 kts 277°
2026-05-07 15:59 29.94315 50.58927 31370 ft 403 kts 277°
2026-05-07 15:59 29.94932 50.55756 30971 ft 407 kts 278°
2026-05-07 15:59 29.95555 50.52556 30588 ft 411 kts 278°
2026-05-07 15:59 29.96181 50.49332 30217 ft 413 kts 277°
2026-05-07 16:00 29.96810 50.46090 29819 ft 416 kts 277°
2026-05-07 16:00 29.97443 50.42827 29368 ft 418 kts 278°
2026-05-07 16:00 29.98077 50.39546 28907 ft 421 kts 278°
2026-05-07 16:00 29.98709 50.36277 28467 ft 424 kts 278°
2026-05-07 16:01 29.99358 50.32914 28015 ft 426 kts 278°
2026-05-07 16:01 29.99936 50.29911 27622 ft 428 kts 278°
2026-05-07 16:01 30.00495 50.27008 27252 ft 429 kts 278°
2026-05-07 16:01 30.01009 50.24330 26916 ft 430 kts 278°
2026-05-07 16:02 30.01658 50.20952 26494 ft 432 kts 278°
2026-05-07 16:02 30.02309 50.17556 26073 ft 434 kts 278°
2026-05-07 16:02 30.02960 50.14149 25660 ft 436 kts 278°
2026-05-07 16:02 30.03615 50.10725 25268 ft 437 kts 278°
2026-05-07 16:03 30.04266 50.07314 24873 ft 437 kts 278°
2026-05-07 16:03 30.04917 50.03895 24482 ft 436 kts 278°
2026-05-07 16:03 30.05565 50.00486 24097 ft 434 kts 278°
2026-05-07 16:03 30.06211 49.97089 23715 ft 433 kts 278°
2026-05-07 16:04 30.06853 49.93704 23323 ft 430 kts 278°
2026-05-07 16:04 30.07490 49.90343 22869 ft 428 kts 278°
2026-05-07 16:04 30.08123 49.86992 22425 ft 426 kts 278°
2026-05-07 16:04 30.08752 49.83663 21982 ft 424 kts 278°
2026-05-07 16:05 30.09376 49.80354 21551 ft 422 kts 279°
2026-05-07 16:05 30.09998 49.77047 21120 ft 420 kts 279°
2026-05-07 16:05 30.10616 49.73762 20702 ft 418 kts 279°
2026-05-07 16:05 30.11231 49.70488 20288 ft 417 kts 279°
2026-05-07 16:06 30.11844 49.67221 19880 ft 416 kts 279°
2026-05-07 16:06 30.12456 49.63955 19469 ft 415 kts 279°
2026-05-07 16:06 30.13164 49.60730 19054 ft 416 kts 288°
2026-05-07 16:06 30.14618 49.57833 18640 ft 422 kts 307°
2026-05-07 16:07 30.16807 49.55553 18250 ft 426 kts 317°
2026-05-07 16:07 30.19025 49.53301 17787 ft 424 kts 315°
2026-05-07 16:07 30.21207 49.51039 17320 ft 422 kts 314°
2026-05-07 16:07 30.23383 49.48773 16850 ft 420 kts 315°
2026-05-07 16:08 30.25548 49.46513 16394 ft 419 kts 315°
2026-05-07 16:08 30.27704 49.44261 15934 ft 415 kts 315°
2026-05-07 16:08 30.29838 49.42030 15476 ft 411 kts 315°
2026-05-07 16:08 30.31951 49.39819 15037 ft 408 kts 315°
2026-05-07 16:09 30.34042 49.37631 14604 ft 404 kts 315°
2026-05-07 16:09 30.36111 49.35463 14241 ft 399 kts 315°
2026-05-07 16:09 30.38156 49.33319 13899 ft 394 kts 315°
2026-05-07 16:09 30.40178 49.31200 13593 ft 388 kts 316°
2026-05-07 16:10 30.42163 49.29116 13249 ft 382 kts 316°
2026-05-07 16:10 30.44121 49.27060 12920 ft 377 kts 315°
2026-05-07 16:10 30.46051 49.25033 12586 ft 372 kts 315°
2026-05-07 16:10 30.47951 49.23036 12259 ft 366 kts 315°
2026-05-07 16:11 30.49828 49.21062 11936 ft 361 kts 315°
2026-05-07 16:11 30.51675 49.19119 11622 ft 357 kts 315°
2026-05-07 16:11 30.53504 49.17193 11297 ft 352 kts 315°
2026-05-07 16:11 30.55322 49.15319 10982 ft 349 kts 320°
2026-05-07 16:12 30.57466 49.14019 10663 ft 349 kts 335°
2026-05-07 16:12 30.59660 49.12964 10375 ft 344 kts 334°
2026-05-07 16:12 30.61830 49.11896 10050 ft 333 kts 334°
2026-05-07 16:12 30.63919 49.10866 9811 ft 317 kts 333°
2026-05-07 16:13 30.65904 49.09888 9564 ft 303 kts 333°
2026-05-07 16:13 30.67813 49.08947 9310 ft 294 kts 333°
2026-05-07 16:13 30.69692 49.08020 9064 ft 293 kts 333°
2026-05-07 16:13 30.71571 49.07091 8820 ft 293 kts 333°
2026-05-07 16:14 30.73440 49.06167 8583 ft 292 kts 333°
2026-05-07 16:14 30.75301 49.05248 8344 ft 290 kts 333°
2026-05-07 16:14 30.77157 49.04330 8096 ft 289 kts 333°
2026-05-07 16:14 30.78991 49.03423 7853 ft 285 kts 333°
2026-05-07 16:15 30.80805 49.02525 7613 ft 281 kts 333°
2026-05-07 16:15 30.82593 49.01640 7375 ft 278 kts 333°
2026-05-07 16:15 30.84359 49.00766 7166 ft 273 kts 333°
2026-05-07 16:15 30.86089 48.99909 6964 ft 268 kts 333°
2026-05-07 16:16 30.87787 48.99067 6764 ft 263 kts 333°
2026-05-07 16:16 30.89459 48.98238 6565 ft 258 kts 333°
2026-05-07 16:16 30.91140 48.97537 6344 ft 258 kts 345°
2026-05-07 16:16 30.92913 48.97257 6125 ft 255 kts 349°
2026-05-07 16:17 30.94658 48.96997 5916 ft 252 kts 349°
2026-05-07 16:17 30.96393 48.96733 5680 ft 252 kts 349°
2026-05-07 16:17 30.98125 48.96468 5474 ft 248 kts 349°
2026-05-07 16:17 30.99823 48.96207 5253 ft 245 kts 349°
2026-05-07 16:18 31.01463 48.95954 5008 ft 243 kts 349°
2026-05-07 16:18 31.03133 48.95697 4759 ft 241 kts 349°
2026-05-07 16:18 31.04782 48.95443 4531 ft 237 kts 349°
2026-05-07 16:18 31.06406 48.95191 4314 ft 234 kts 350°
2026-05-07 16:19 31.08003 48.94944 4112 ft 230 kts 351°
2026-05-07 16:19 31.09577 48.94700 3901 ft 226 kts 350°
2026-05-07 16:19 31.11099 48.94463 3710 ft 221 kts 352°
2026-05-07 16:19 31.12597 48.94232 3526 ft 214 kts 352°
2026-05-07 16:20 31.14056 48.94007 3311 ft 209 kts 353°
2026-05-07 16:20 31.15476 48.93785 3081 ft 202 kts 353°
2026-05-07 16:20 31.16851 48.93573 2898 ft 196 kts 352°
2026-05-07 16:20 31.18188 48.93365 2707 ft 192 kts 352°
2026-05-07 16:21 31.19495 48.93164 2505 ft 188 kts 352°
2026-05-07 16:21 31.20780 48.92964 2304 ft 183 kts 352°
2026-05-07 16:21 31.21996 48.92775 2147 ft 171 kts 352°
2026-05-07 16:21 31.23149 48.92593 1924 ft 165 kts 350°
2026-05-07 16:22 31.24175 48.92033 1710 ft 163 kts 324°
2026-05-07 16:22 31.25007 48.91132 1526 ft 164 kts 313°
2026-05-07 16:22 31.25678 48.90092 1414 ft 156 kts 307°
2026-05-07 16:22 31.26286 48.89049 1399 ft 153 kts 306°
2026-05-07 16:23 31.26876 48.88032 1371 ft 149 kts 305°
2026-05-07 16:23 31.27449 48.87046 1376 ft 145 kts 307°
2026-05-07 16:23 31.28012 48.86077 1318 ft 143 kts 308°
2026-05-07 16:23 31.28565 48.85124 1299 ft 142 kts 307°
2026-05-07 16:24 31.29120 48.84169 1269 ft 141 kts 307°
2026-05-07 16:24 31.29665 48.83232 1137 ft 138 kts 306°
2026-05-07 16:24 31.30208 48.82295 989 ft 140 kts 305°
2026-05-07 16:24 31.30760 48.81354 827 ft 140 kts 306°
2026-05-07 16:25 31.31303 48.80409 669 ft 139 kts 305°
2026-05-07 16:25 31.31844 48.79480 470 ft 138 kts 304°
2026-05-07 16:25 31.32374 48.78526 309 ft 141 kts 304°
2026-05-07 16:25 31.32921 48.77566 111 ft 142 kts 306°
2026-05-07 16:26 31.33443 48.76705 69 ft 106 kts 306°
2026-05-07 16:26 31.33747 48.76183 70 ft 66 kts 304°
2026-05-07 16:26 31.34005 48.75747 69 ft 65 kts 305°
2026-05-07 16:26 31.34169 48.75467 65 ft 45 kts 304°
2026-05-07 16:27 31.34327 48.75132 69 ft 21 kts 285°
2026-05-07 16:27 31.34362 48.74967 73 ft 21 kts 283°
2026-05-07 16:27 31.34418 48.74807 71 ft 14 kts 299°
2026-05-07 16:27 31.34469 48.74706 71 ft 10 kts 301°
2026-05-07 16:28 31.34474 48.74677 77 ft 1 kts 257°
2026-05-07 16:28 31.34457 48.74654 71 ft 5 kts 219°
2026-05-07 16:28 31.34441 48.74632 76 ft 1 kts 261°
2026-05-07 16:28 31.34441 48.74630 76 ft 0 kts 268°